Time,TemperatureF,DewpointF,PressureIn,WindDirection,WindDirectionDegrees,WindSpeedMPH,WindSpeedGustMPH,Humidity,HourlyPrecipIn,Conditions,Clouds,dailyrainin,SoftwareType,DateUTC
2013-08-03 00:03:00,67.6,62.0,30.03,SSW,200,0.0,0.0,83,0.00,,,0.00,weatherlink.com 1.10,2013-08-03 04:03:00,
2013-08-03 00:18:00,67.5,63.0,30.03,SSW,200,0.0,0.0,84,0.00,,,0.00,weatherlink.com 1.10,2013-08-03 04:18:00,
2013-08-03 00:34:00,67.1,63.0,30.03,SSW,200,0.0,0.0,86,0.00,,,0.00,weatherlink.com 1.10,2013-08-03 04:34:00,
2013-08-03 00:49:00,66.9,62.0,30.04,SSW,200,0.0,0.0,85,0.00,,,0.00,weatherlink.com 1.10,2013-08-03 04:49:00,
2013-08-03 01:04:00,67.0,63.0,30.03,SSW,200,0.0,0.0,86,0.00,,,0.00,weatherlink.com 1.10,2013-08-03 05:04:00,
2013-08-03 01:19:00,66.6,63.0,30.03,SSW,200,0.0,0.0,87,0.00,,,0.00,weatherlink.com 1.10,2013-08-03 05:19:00,
2013-08-03 01:34:00,66.5,62.0,30.03,SSW,200,0.0,0.0,86,0.00,,,0.00,weatherlink.com 1.10,2013-08-03 05:34:00,
2013-08-03 01:49:00,66.0,62.0,30.03,SSW,200,0.0,0.0,87,0.00,,,0.00,weatherlink.com 1.10,2013-08-03 05:49:00,
2013-08-03 02:04:00,65.8,62.0,30.02,SSW,200,0.0,0.0,88,0.00,,,0.00,weatherlink.com 1.10,2013-08-03 06:04:00,
2013-08-03 02:19:00,65.5,62.0,30.02,SSW,200,0.0,0.0,88,0.00,,,0.00,weatherlink.com 1.10,2013-08-03 06:19:00,
2013-08-03 02:34:00,65.1,63.0,30.02,SSW,200,0.0,0.0,91,0.00,,,0.00,weatherlink.com 1.10,2013-08-03 06:34:00,
2013-08-03 02:49:00,65.3,63.0,30.02,SSW,200,0.0,0.0,91,0.00,,,0.00,weatherlink.com 1.10,2013-08-03 06:49:00,
2013-08-03 03:04:00,64.8,63.0,30.02,SSW,200,0.0,0.0,92,0.00,,,0.00,weatherlink.com 1.10,2013-08-03 07:04:00,
2013-08-03 03:19:00,64.7,62.0,30.02,SSW,200,0.0,0.0,92,0.00,,,0.00,weatherlink.com 1.10,2013-08-03 07:19:00,
2013-08-03 03:34:00,64.4,62.0,30.01,SSW,200,0.0,0.0,92,0.00,,,0.00,weatherlink.com 1.10,2013-08-03 07:34:00,
2013-08-03 03:49:00,63.9,62.0,30.01,SSW,200,0.0,0.0,93,0.00,,,0.00,weatherlink.com 1.10,2013-08-03 07:49:00,
2013-08-03 04:04:00,63.4,62.0,30.01,SSW,200,0.0,0.0,94,0.00,,,0.00,weatherlink.com 1.10,2013-08-03 08:04:00,
2013-08-03 04:19:00,63.5,62.0,30.01,SSW,200,0.0,0.0,95,0.00,,,0.00,weatherlink.com 1.10,2013-08-03 08:19:00,
2013-08-03 04:34:00,63.3,62.0,30.02,SSW,200,0.0,0.0,95,0.00,,,0.00,weatherlink.com 1.10,2013-08-03 08:34:00,
2013-08-03 04:49:00,63.3,62.0,30.01,SSW,200,0.0,0.0,95,0.00,,,0.00,weatherlink.com 1.10,2013-08-03 08:49:00,
2013-08-03 05:04:00,62.8,61.0,30.01,SSW,200,0.0,0.0,95,0.00,,,0.00,weatherlink.com 1.10,2013-08-03 09:04:00,
2013-08-03 05:19:00,63.1,62.0,30.01,SSW,200,0.0,0.0,96,0.00,,,0.00,weatherlink.com 1.10,2013-08-03 09:19:00,
2013-08-03 05:34:00,63.0,62.0,30.01,SSW,200,0.0,0.0,96,0.00,,,0.00,weatherlink.com 1.10,2013-08-03 09:34:00,
2013-08-03 05:49:00,63.2,62.0,30.02,SSW,200,0.0,0.0,96,0.00,,,0.00,weatherlink.com 1.10,2013-08-03 09:49:00,
2013-08-03 06:04:00,63.0,62.0,30.02,SSW,200,0.0,0.0,96,0.00,,,0.00,weatherlink.com 1.10,2013-08-03 10:04:00,
2013-08-03 06:19:00,63.2,62.0,30.03,SSW,200,0.0,0.0,96,0.00,,,0.00,weatherlink.com 1.10,2013-08-03 10:19:00,
2013-08-03 06:34:00,63.4,63.0,30.03,SSW,200,0.0,0.0,97,0.00,,,0.00,weatherlink.com 1.10,2013-08-03 10:34:00,
2013-08-03 06:49:00,63.3,63.0,30.02,SSW,200,0.0,0.0,97,0.00,,,0.00,weatherlink.com 1.10,2013-08-03 10:49:00,
2013-08-03 07:04:00,62.8,62.0,30.02,SSW,200,0.0,0.0,96,0.00,,,0.00,weatherlink.com 1.10,2013-08-03 11:04:00,
2013-08-03 07:19:00,63.2,62.0,30.02,SSW,200,0.0,0.0,97,0.00,,,0.00,weatherlink.com 1.10,2013-08-03 11:19:00,
2013-08-03 07:31:00,63.4,62.5,30.02,SSW,198,0.0,0.0,97,0.00,,,0.00,Wunderground v.1.15,2013-08-03 11:31:00,
2013-08-03 07:37:00,63.6,62.7,30.03,SSW,198,0.0,0.0,97,0.00,,,0.00,Wunderground v.1.15,2013-08-03 11:37:00,
2013-08-03 07:42:00,63.7,62.8,30.03,SSW,198,0.0,0.0,97,0.00,,,0.00,Wunderground v.1.15,2013-08-03 11:42:00,
2013-08-03 07:48:00,63.8,62.9,30.02,SSW,198,0.0,0.0,97,0.00,,,0.00,Wunderground v.1.15,2013-08-03 11:48:00,
2013-08-03 07:54:00,63.9,63.0,30.02,SSW,198,0.0,0.0,97,0.00,,,0.00,Wunderground v.1.15,2013-08-03 11:54:00,
2013-08-03 08:00:00,64.1,63.2,30.02,SSW,198,0.0,0.0,97,0.00,,,0.00,Wunderground v.1.15,2013-08-03 12:00:00,
2013-08-03 08:06:00,64.2,63.3,30.02,SSW,198,0.0,0.0,97,0.00,,,0.00,Wunderground v.1.15,2013-08-03 12:06:00,
2013-08-03 08:12:00,64.4,63.5,30.02,SSW,198,0.0,0.0,97,0.00,,,0.00,Wunderground v.1.15,2013-08-03 12:12:00,
2013-08-03 08:17:00,64.6,63.7,30.03,SSW,198,0.0,0.0,97,0.00,,,0.00,Wunderground v.1.15,2013-08-03 12:17:00,
2013-08-03 08:23:00,64.7,63.8,30.03,SSW,198,0.0,0.0,97,0.00,,,0.00,Wunderground v.1.15,2013-08-03 12:23:00,
2013-08-03 08:28:00,64.9,64.0,30.02,SSW,198,0.0,0.0,97,0.00,,,0.00,Wunderground v.1.15,2013-08-03 12:28:00,
2013-08-03 08:33:00,65.3,64.4,30.03,SSW,198,0.0,0.0,97,0.00,,,0.00,Wunderground v.1.15,2013-08-03 12:33:00,
2013-08-03 08:38:00,65.5,64.6,30.03,SSW,198,0.0,0.0,97,0.00,,,0.00,Wunderground v.1.15,2013-08-03 12:38:00,
2013-08-03 08:44:00,65.7,64.5,30.02,SSW,198,0.0,0.0,96,0.00,,,0.00,Wunderground v.1.15,2013-08-03 12:44:00,
2013-08-03 08:49:00,65.9,64.7,30.03,SSW,198,0.0,0.0,96,0.00,,,0.00,Wunderground v.1.15,2013-08-03 12:49:00,
2013-08-03 08:55:00,66.0,64.5,30.03,SSW,198,0.0,0.0,95,0.00,,,0.00,Wunderground v.1.15,2013-08-03 12:55:00,
2013-08-03 09:00:00,66.0,64.2,30.03,SSW,198,0.0,0.0,94,0.00,,,0.00,Wunderground v.1.15,2013-08-03 13:00:00,
2013-08-03 09:06:00,66.4,64.6,30.03,SSW,198,0.0,0.0,94,0.00,,,0.00,Wunderground v.1.15,2013-08-03 13:06:00,
2013-08-03 09:11:00,66.9,65.4,30.03,SSW,198,0.0,0.0,95,0.00,,,0.00,Wunderground v.1.15,2013-08-03 13:11:00,
2013-08-03 09:17:00,67.2,65.1,30.03,SSW,198,0.0,0.0,93,0.00,,,0.00,Wunderground v.1.15,2013-08-03 13:17:00,
2013-08-03 09:22:00,67.6,65.8,30.03,SSW,198,0.0,0.0,94,0.00,,,0.00,Wunderground v.1.15,2013-08-03 13:22:00,
2013-08-03 09:28:00,68.6,66.8,30.03,SSW,198,0.0,0.0,94,0.00,,,0.00,Wunderground v.1.15,2013-08-03 13:28:00,
2013-08-03 09:33:00,68.9,66.2,30.03,East,80,0.0,0.0,91,0.00,,,0.00,Wunderground v.1.15,2013-08-03 13:33:00,
2013-08-03 09:38:00,69.2,66.1,30.03,East,80,0.0,0.0,90,0.00,,,0.00,Wunderground v.1.15,2013-08-03 13:38:00,
2013-08-03 09:44:00,69.9,68.1,30.03,East,81,0.0,0.0,94,0.00,,,0.00,Wunderground v.1.15,2013-08-03 13:44:00,
2013-08-03 09:50:00,71.4,68.0,30.03,East,81,0.0,0.0,89,0.00,,,0.00,Wunderground v.1.15,2013-08-03 13:50:00,
2013-08-03 09:55:00,72.2,68.8,30.03,East,80,0.0,0.0,89,0.00,,,0.00,Wunderground v.1.15,2013-08-03 13:55:00,
2013-08-03 10:00:00,72.4,67.6,30.03,East,79,0.0,0.0,85,0.00,,,0.00,Wunderground v.1.15,2013-08-03 14:00:00,
2013-08-03 10:06:00,72.8,69.0,30.03,ENE,75,0.0,0.0,88,0.00,,,0.00,Wunderground v.1.15,2013-08-03 14:06:00,
2013-08-03 10:12:00,73.8,68.3,30.04,ENE,75,0.0,0.0,83,0.00,,,0.00,Wunderground v.1.15,2013-08-03 14:12:00,
2013-08-03 10:17:00,74.0,68.2,30.03,ENE,70,0.0,0.0,82,0.00,,,0.00,Wunderground v.1.15,2013-08-03 14:17:00,
2013-08-03 10:24:00,73.7,68.2,30.03,ENE,67,0.0,0.0,83,0.00,,,0.00,Wunderground v.1.15,2013-08-03 14:24:00,
2013-08-03 10:29:00,73.7,68.6,30.03,ESE,106,0.0,0.0,84,0.00,,,0.00,Wunderground v.1.15,2013-08-03 14:29:00,
2013-08-03 10:35:00,75.2,69.7,30.02,ENE,75,0.0,0.0,83,0.00,,,0.00,Wunderground v.1.15,2013-08-03 14:35:00,
2013-08-03 10:41:00,76.3,69.7,30.02,East,80,0.0,0.0,80,0.00,,,0.00,Wunderground v.1.15,2013-08-03 14:41:00,
2013-08-03 10:46:00,75.9,68.5,30.02,NNW,345,0.0,1.0,78,0.00,,,0.00,Wunderground v.1.15,2013-08-03 14:46:00,
2013-08-03 10:52:00,75.6,68.3,30.02,NNW,345,1.0,1.0,78,0.00,,,0.00,Wunderground v.1.15,2013-08-03 14:52:00,
2013-08-03 10:57:00,76.3,70.4,30.02,NNW,345,0.0,1.0,82,0.00,,,0.00,Wunderground v.1.15,2013-08-03 14:57:00,
2013-08-03 11:03:00,76.2,68.5,30.02,ENE,65,0.0,2.0,77,0.00,,,0.00,Wunderground v.1.15,2013-08-03 15:03:00,
2013-08-03 11:08:00,76.2,67.3,30.02,East,84,0.0,2.0,74,0.00,,,0.00,Wunderground v.1.15,2013-08-03 15:08:00,
2013-08-03 11:14:00,75.9,67.4,30.02,ENE,74,1.0,2.0,75,0.00,,,0.00,Wunderground v.1.15,2013-08-03 15:14:00,
2013-08-03 11:19:00,75.9,67.0,30.01,ENE,68,1.0,2.0,74,0.00,,,0.00,Wunderground v.1.15,2013-08-03 15:19:00,
2013-08-03 11:25:00,76.4,69.0,30.02,ENE,68,1.0,3.0,78,0.00,,,0.00,Wunderground v.1.15,2013-08-03 15:25:00,
2013-08-03 11:30:00,77.4,69.2,30.02,ESE,105,0.0,3.0,76,0.00,,,0.00,Wunderground v.1.15,2013-08-03 15:30:00,
2013-08-03 11:36:00,77.6,68.3,30.02,East,88,1.0,2.0,73,0.00,,,0.00,Wunderground v.1.15,2013-08-03 15:36:00,
2013-08-03 11:42:00,77.5,68.6,30.02,NE,42,1.0,1.0,74,0.00,,,0.00,Wunderground v.1.15,2013-08-03 15:42:00,
2013-08-03 11:47:00,76.9,68.0,30.02,NNE,12,1.0,2.0,74,0.00,,,0.00,Wunderground v.1.15,2013-08-03 15:47:00,
2013-08-03 11:53:00,76.7,67.4,30.02,NNW,342,1.0,1.0,73,0.00,,,0.00,Wunderground v.1.15,2013-08-03 15:53:00,
2013-08-03 11:59:00,77.5,68.6,30.01,ENE,74,0.0,1.0,74,0.00,,,0.00,Wunderground v.1.15,2013-08-03 15:59:00,
2013-08-03 12:05:00,77.7,69.5,30.02,NNE,26,0.0,0.0,76,0.00,,,0.00,Wunderground v.1.15,2013-08-03 16:05:00,
2013-08-03 12:11:00,77.3,66.3,30.02,NE,54,0.0,4.0,69,0.00,,,0.00,Wunderground v.1.15,2013-08-03 16:11:00,
2013-08-03 12:16:00,77.3,67.6,30.01,ENE,65,1.0,4.0,72,0.00,,,0.00,Wunderground v.1.15,2013-08-03 16:16:00,
2013-08-03 12:22:00,78.0,68.2,30.01,SW,224,1.0,1.0,72,0.00,,,0.00,Wunderground v.1.15,2013-08-03 16:22:00,
2013-08-03 12:28:00,78.4,67.4,30.01,SW,225,0.0,1.0,69,0.00,,,0.00,Wunderground v.1.15,2013-08-03 16:28:00,
2013-08-03 12:33:00,77.7,67.5,30.01,WSW,241,1.0,2.0,71,0.00,,,0.00,Wunderground v.1.15,2013-08-03 16:33:00,
2013-08-03 12:39:00,77.9,68.0,30.02,ENE,65,1.0,3.0,72,0.00,,,0.00,weatherlink.com 1.10,2013-08-03 16:39:00,
2013-08-03 12:45:00,77.7,67.1,30.01,NNW,336,1.0,2.0,70,0.00,,,0.00,Wunderground v.1.15,2013-08-03 16:45:00,
2013-08-03 12:50:00,77.2,66.2,30.01,NNW,328,1.0,1.0,69,0.00,,,0.00,Wunderground v.1.15,2013-08-03 16:50:00,
2013-08-03 12:56:00,77.6,66.6,30.01,NNW,328,1.0,1.0,69,0.00,,,0.00,Wunderground v.1.15,2013-08-03 16:56:00,
2013-08-03 13:02:00,77.4,67.3,30.01,NNW,329,1.0,1.0,71,0.00,,,0.00,Wunderground v.1.15,2013-08-03 17:02:00,
2013-08-03 13:07:00,78.0,70.0,30.01,NNW,328,0.0,1.0,76,0.00,,,0.00,weatherlink.com 1.10,2013-08-03 17:07:00,
2013-08-03 13:13:00,78.2,69.2,30.01,NNW,328,0.0,1.0,74,0.00,,,0.00,Wunderground v.1.15,2013-08-03 17:13:00,
2013-08-03 13:18:00,78.1,67.5,30.01,NNW,339,1.0,2.0,70,0.00,,,0.00,Wunderground v.1.15,2013-08-03 17:18:00,
2013-08-03 13:37:00,78.6,69.0,30.01,WNW,285,0.0,0.0,73,0.00,,,0.00,weatherlink.com 1.10,2013-08-03 17:37:00,
2013-08-03 13:43:00,77.9,67.3,30.01,NW,317,0.0,1.0,70,0.00,,,0.00,Wunderground v.1.15,2013-08-03 17:43:00,
2013-08-03 13:48:00,77.7,68.0,30.01,NW,318,0.0,1.0,72,0.00,,,0.00,Wunderground v.1.15,2013-08-03 17:48:00,
2013-08-03 13:53:00,78.2,69.0,30.01,NW,318,0.0,0.0,73,0.00,,,0.00,weatherlink.com 1.10,2013-08-03 17:53:00,
2013-08-03 13:59:00,78.5,68.3,30.01,NW,318,0.0,1.0,71,0.00,,,0.00,Wunderground v.1.15,2013-08-03 17:59:00,
2013-08-03 14:04:00,79.0,66.2,30.01,ENE,61,0.0,0.0,65,0.00,,,0.00,Wunderground v.1.15,2013-08-03 18:04:00,
2013-08-03 14:10:00,79.6,67.7,30.01,ESE,108,0.0,0.0,67,0.00,,,0.00,Wunderground v.1.15,2013-08-03 18:10:00,
2013-08-03 14:15:00,79.6,68.5,30.00,ENE,71,0.0,0.0,69,0.00,,,0.00,Wunderground v.1.15,2013-08-03 18:15:00,
2013-08-03 14:21:00,79.1,68.5,30.00,ENE,70,0.0,0.0,70,0.00,,,0.00,Wunderground v.1.15,2013-08-03 18:21:00,
2013-08-03 14:26:00,78.9,67.4,30.00,ENE,70,0.0,0.0,68,0.00,,,0.00,Wunderground v.1.15,2013-08-03 18:26:00,
2013-08-03 14:32:00,78.6,68.0,30.00,ENE,69,0.0,0.0,70,0.00,,,0.00,Wunderground v.1.15,2013-08-03 18:32:00,
2013-08-03 14:38:00,78.8,69.0,30.00,NE,35,0.0,1.0,72,0.00,,,0.00,Wunderground v.1.15,2013-08-03 18:38:00,
2013-08-03 14:44:00,78.5,67.5,30.00,NE,36,0.0,0.0,69,0.00,,,0.00,Wunderground v.1.15,2013-08-03 18:44:00,
2013-08-03 14:49:00,78.0,67.8,29.99,NNW,332,0.0,0.0,71,0.00,,,0.00,Wunderground v.1.15,2013-08-03 18:49:00,
2013-08-03 14:55:00,78.5,68.7,29.99,NE,54,0.0,0.0,72,0.00,,,0.00,Wunderground v.1.15,2013-08-03 18:55:00,
2013-08-03 15:00:00,78.6,68.0,29.99,ENE,65,0.0,0.0,70,0.00,,,0.00,Wunderground v.1.15,2013-08-03 19:00:00,
2013-08-03 15:06:00,78.3,68.1,29.99,ENE,67,0.0,1.0,71,0.00,,,0.00,Wunderground v.1.15,2013-08-03 19:06:00,
2013-08-03 15:11:00,78.2,67.6,29.99,ENE,61,1.0,1.0,70,0.00,,,0.00,Wunderground v.1.15,2013-08-03 19:11:00,
2013-08-03 15:16:00,78.3,66.9,29.99,East,86,1.0,1.0,68,0.00,,,0.00,Wunderground v.1.15,2013-08-03 19:16:00,
2013-08-03 15:21:00,78.3,66.9,29.99,East,79,0.0,1.0,68,0.00,,,0.00,Wunderground v.1.15,2013-08-03 19:21:00,
2013-08-03 15:27:00,78.4,67.8,29.99,ENE,73,0.0,2.0,70,0.00,,,0.00,Wunderground v.1.15,2013-08-03 19:27:00,
2013-08-03 15:33:00,78.4,68.2,29.99,NE,39,0.0,2.0,71,0.00,,,0.00,Wunderground v.1.15,2013-08-03 19:33:00,
2013-08-03 15:39:00,78.2,66.3,29.99,ENE,72,1.0,2.0,67,0.00,,,0.00,Wunderground v.1.15,2013-08-03 19:39:00,
2013-08-03 15:44:00,78.0,67.0,29.99,NW,305,1.0,2.0,69,0.00,,,0.00,Wunderground v.1.15,2013-08-03 19:44:00,
2013-08-03 15:50:00,78.5,68.7,29.99,NW,304,0.0,2.0,72,0.00,,,0.00,Wunderground v.1.15,2013-08-03 19:50:00,
2013-08-03 15:55:00,78.4,67.0,29.99,NE,51,0.0,2.0,68,0.00,,,0.00,Wunderground v.1.15,2013-08-03 19:55:00,
2013-08-03 16:00:00,77.9,67.7,29.99,NW,312,1.0,1.0,71,0.00,,,0.00,Wunderground v.1.15,2013-08-03 20:00:00,
2013-08-03 16:06:00,77.4,67.3,29.99,NE,42,0.0,1.0,71,0.00,,,0.00,Wunderground v.1.15,2013-08-03 20:06:00,
2013-08-03 16:12:00,77.0,66.5,29.99,North,6,0.0,2.0,70,0.00,,,0.00,Wunderground v.1.15,2013-08-03 20:12:00,
2013-08-03 16:17:00,76.7,65.3,29.99,NNW,330,1.0,2.0,68,0.00,,,0.00,Wunderground v.1.15,2013-08-03 20:17:00,
2013-08-03 16:22:00,76.6,65.2,29.98,NNW,339,1.0,1.0,68,0.00,,,0.00,Wunderground v.1.15,2013-08-03 20:22:00,
2013-08-03 16:28:00,76.3,65.0,29.98,NNW,338,0.0,5.0,68,0.00,,,0.00,Wunderground v.1.15,2013-08-03 20:28:00,
2013-08-03 16:34:00,76.4,65.1,29.98,NW,324,1.0,5.0,68,0.00,,,0.00,Wunderground v.1.15,2013-08-03 20:34:00,
2013-08-03 16:39:00,76.5,64.7,29.98,NNW,328,1.0,5.0,67,0.00,,,0.00,Wunderground v.1.15,2013-08-03 20:39:00,
2013-08-03 16:45:00,76.4,64.6,29.98,NNW,328,1.0,5.0,67,0.00,,,0.00,Wunderground v.1.15,2013-08-03 20:45:00,
2013-08-03 16:50:00,76.4,64.6,29.98,NNW,329,1.0,1.0,67,0.00,,,0.00,Wunderground v.1.15,2013-08-03 20:50:00,
2013-08-03 16:56:00,76.4,66.0,29.98,North,10,1.0,2.0,70,0.00,,,0.00,weatherlink.com 1.10,2013-08-03 20:56:00,
2013-08-03 17:00:00,76.2,65.7,29.98,NW,315,1.0,1.0,70,0.00,,,0.00,Wunderground v.1.15,2013-08-03 21:00:00,
2013-08-03 17:06:00,76.1,66.4,29.98,SW,226,1.0,2.0,72,0.00,,,0.00,Wunderground v.1.15,2013-08-03 21:06:00,
2013-08-03 17:11:00,76.1,68.0,29.98,SW,228,1.0,1.0,76,0.00,,,0.00,Wunderground v.1.15,2013-08-03 21:11:00,
2013-08-03 17:16:00,75.9,67.4,29.98,SW,229,0.0,1.0,75,0.00,,,0.00,Wunderground v.1.15,2013-08-03 21:16:00,
2013-08-03 17:22:00,75.4,66.9,29.98,SSW,200,0.0,1.0,75,0.00,,,0.00,Wunderground v.1.15,2013-08-03 21:22:00,
2013-08-03 17:27:00,75.3,67.2,29.98,SE,145,1.0,3.0,76,0.00,,,0.00,Wunderground v.1.15,2013-08-03 21:27:00,
2013-08-03 17:33:00,75.2,67.5,29.97,SSW,198,1.0,3.0,77,0.00,,,0.00,Wunderground v.1.15,2013-08-03 21:33:00,
2013-08-03 17:38:00,75.1,66.2,29.97,SSW,200,1.0,3.0,74,0.00,,,0.00,Wunderground v.1.15,2013-08-03 21:38:00,
2013-08-03 17:44:00,75.5,67.8,29.97,SSW,200,1.0,3.0,77,0.00,,,0.00,Wunderground v.1.15,2013-08-03 21:44:00,
2013-08-03 17:50:00,75.8,66.5,29.97,SSE,159,0.0,3.0,73,0.00,,,0.00,Wunderground v.1.15,2013-08-03 21:50:00,
2013-08-03 17:55:00,75.9,67.0,29.97,SSE,160,0.0,3.0,74,0.00,,,0.00,Wunderground v.1.15,2013-08-03 21:55:00,
2013-08-03 18:00:00,75.6,66.3,29.97,SE,135,0.0,0.0,73,0.00,,,0.00,Wunderground v.1.15,2013-08-03 22:00:00,
2013-08-03 18:06:00,75.4,66.1,29.97,ENE,65,0.0,0.0,73,0.00,,,0.00,Wunderground v.1.15,2013-08-03 22:06:00,
2013-08-03 18:11:00,75.3,66.4,29.97,NNW,330,0.0,1.0,74,0.00,,,0.00,Wunderground v.1.15,2013-08-03 22:11:00,
2013-08-03 18:17:00,75.2,65.9,29.97,ENE,71,0.0,2.0,73,0.00,,,0.00,Wunderground v.1.15,2013-08-03 22:17:00,
2013-08-03 18:22:00,75.2,65.9,29.97,NE,43,0.0,0.0,73,0.00,,,0.00,Wunderground v.1.15,2013-08-03 22:22:00,
2013-08-03 18:28:00,75.2,65.9,29.97,ESE,108,0.0,2.0,73,0.00,,,0.00,Wunderground v.1.15,2013-08-03 22:28:00,
2013-08-03 18:33:00,75.1,66.6,29.97,SW,222,0.0,2.0,75,0.00,,,0.00,Wunderground v.1.15,2013-08-03 22:33:00,
2013-08-03 18:39:00,74.7,66.6,29.97,East,80,0.0,2.0,76,0.00,,,0.00,Wunderground v.1.15,2013-08-03 22:39:00,
2013-08-03 18:45:00,74.5,66.8,29.97,ESE,120,0.0,2.0,77,0.00,,,0.00,Wunderground v.1.15,2013-08-03 22:45:00,
2013-08-03 18:50:00,74.3,66.6,29.97,SE,142,0.0,2.0,77,0.00,,,0.00,Wunderground v.1.15,2013-08-03 22:50:00,
2013-08-03 18:56:00,74.1,66.4,29.97,SSE,160,1.0,2.0,77,0.00,,,0.00,Wunderground v.1.15,2013-08-03 22:56:00,
2013-08-03 19:02:00,73.7,65.7,29.97,South,176,1.0,1.0,76,0.00,,,0.00,Wunderground v.1.15,2013-08-03 23:02:00,
2013-08-03 19:07:00,73.5,65.5,29.97,SSW,196,1.0,2.0,76,0.00,,,0.00,Wunderground v.1.15,2013-08-03 23:07:00,
2013-08-03 19:13:00,73.3,66.0,29.97,SSW,195,1.0,1.0,78,0.00,,,0.00,Wunderground v.1.15,2013-08-03 23:13:00,
2013-08-03 19:19:00,73.0,66.1,29.97,SSW,198,1.0,1.0,79,0.00,,,0.00,Wunderground v.1.15,2013-08-03 23:19:00,
2013-08-03 19:25:00,72.8,65.9,29.97,SSW,197,1.0,1.0,79,0.00,,,0.00,Wunderground v.1.15,2013-08-03 23:25:00,
2013-08-03 19:31:00,72.6,65.7,29.97,SSW,197,1.0,2.0,79,0.00,,,0.00,Wunderground v.1.15,2013-08-03 23:31:00,
2013-08-03 19:36:00,72.5,66.0,29.97,SSW,198,1.0,2.0,80,0.00,,,0.00,Wunderground v.1.15,2013-08-03 23:36:00,
2013-08-03 19:41:00,72.3,65.8,29.97,SSW,197,1.0,1.0,80,0.00,,,0.00,Wunderground v.1.15,2013-08-03 23:41:00,
2013-08-03 19:47:00,72.1,65.6,29.97,South,190,1.0,1.0,80,0.00,,,0.00,Wunderground v.1.15,2013-08-03 23:47:00,
2013-08-03 19:53:00,71.9,65.4,29.97,SW,215,1.0,1.0,80,0.00,,,0.00,Wunderground v.1.15,2013-08-03 23:53:00,
2013-08-03 19:59:00,72.2,65.3,29.97,WSW,243,1.0,2.0,79,0.00,,,0.00,Wunderground v.1.15,2013-08-03 23:59:00,
2013-08-03 20:05:00,72.0,64.8,29.97,WSW,256,1.0,2.0,78,0.00,,,0.00,Wunderground v.1.15,2013-08-04 00:05:00,
2013-08-03 20:11:00,71.9,65.4,29.97,SSW,200,1.0,1.0,80,0.00,,,0.00,Wunderground v.1.15,2013-08-04 00:11:00,
2013-08-03 20:17:00,71.5,65.0,29.97,SSW,202,1.0,1.0,80,0.00,,,0.00,Wunderground v.1.15,2013-08-04 00:17:00,
2013-08-03 20:23:00,71.3,65.2,29.97,SSW,202,1.0,1.0,81,0.00,,,0.00,Wunderground v.1.15,2013-08-04 00:23:00,
2013-08-03 20:28:00,71.1,65.0,29.97,SSW,201,1.0,2.0,81,0.00,,,0.00,Wunderground v.1.15,2013-08-04 00:28:00,
2013-08-03 20:34:00,71.0,65.6,29.97,SSW,201,1.0,2.0,83,0.00,,,0.00,Wunderground v.1.15,2013-08-04 00:34:00,
2013-08-03 20:39:00,70.7,65.3,29.97,SSW,201,0.0,2.0,83,0.00,,,0.00,Wunderground v.1.15,2013-08-04 00:39:00,
2013-08-03 20:45:00,70.5,65.4,29.98,SSW,201,0.0,2.0,84,0.00,,,0.00,Wunderground v.1.15,2013-08-04 00:45:00,
2013-08-03 20:50:00,70.3,64.9,29.98,SSW,201,0.0,2.0,83,0.00,,,0.00,Wunderground v.1.15,2013-08-04 00:50:00,
2013-08-03 20:56:00,70.1,65.0,29.98,SSW,202,0.0,2.0,84,0.00,,,0.00,Wunderground v.1.15,2013-08-04 00:56:00,
2013-08-03 21:02:00,70.0,65.3,29.98,SSW,201,0.0,0.0,85,0.00,,,0.00,Wunderground v.1.15,2013-08-04 01:02:00,
2013-08-03 21:07:00,69.9,65.2,29.98,SSW,202,0.0,0.0,85,0.00,,,0.00,Wunderground v.1.15,2013-08-04 01:07:00,
2013-08-03 21:13:00,69.7,65.0,29.98,SSW,202,0.0,0.0,84,0.00,,,0.00,weatherlink.com 1.10,2013-08-04 01:13:00,
2013-08-03 21:28:00,69.6,65.0,29.98,SSW,200,0.0,0.0,84,0.00,,,0.00,weatherlink.com 1.10,2013-08-04 01:28:00,
2013-08-03 21:43:00,69.2,65.0,29.99,SSW,200,0.0,0.0,85,0.00,,,0.00,weatherlink.com 1.10,2013-08-04 01:43:00,
2013-08-03 21:58:00,69.2,65.0,29.99,SSW,200,0.0,0.0,85,0.00,,,0.00,weatherlink.com 1.10,2013-08-04 01:58:00,
2013-08-03 22:13:00,69.0,64.0,30.00,SSW,200,0.0,0.0,85,0.00,,,0.00,weatherlink.com 1.10,2013-08-04 02:13:00,
2013-08-03 22:28:00,68.9,65.0,30.01,SSW,200,0.0,0.0,86,0.00,,,0.00,weatherlink.com 1.10,2013-08-04 02:28:00,
2013-08-03 22:43:00,68.9,65.0,30.00,SSW,200,0.0,0.0,86,0.00,,,0.00,weatherlink.com 1.10,2013-08-04 02:43:00,
2013-08-03 22:58:00,69.1,65.0,30.00,SSW,200,0.0,0.0,86,0.00,,,0.00,weatherlink.com 1.10,2013-08-04 02:58:00,
2013-08-03 23:14:00,68.7,64.0,30.00,SSW,200,0.0,0.0,86,0.00,,,0.00,weatherlink.com 1.10,2013-08-04 03:14:00,
2013-08-03 23:28:00,68.6,64.0,29.99,SSW,200,0.0,0.0,86,0.00,,,0.00,weatherlink.com 1.10,2013-08-04 03:28:00,
2013-08-03 23:43:00,68.3,64.0,30.00,SSW,200,0.0,0.0,87,0.00,,,0.00,weatherlink.com 1.10,2013-08-04 03:43:00,
2013-08-03 23:58:00,67.9,65.0,30.00,SSW,200,0.0,1.0,89,0.00,,,0.00,weatherlink.com 1.10,2013-08-04 03:58:00,